User: anonymous   Login
Location: Poprad
(49.0500°N, 20.3000°E)
Time: 23:18:45
(UTC+02:00)
Language:

UNISAT 6 - Orbit

View from above orbital plane
View from above orbital plane
View from above satellite
View from above satellite

Ground track
Ground track

The orbit data is extracted from the following two-line orbital elements,

1 40012U 14033C   24115.04120170  .00008606  00000-0  11326-2 0  9991
2 40012  97.6979 279.7103 0054312 121.4449 239.2089 14.79350110529836
Epoch (UTC): 24 April 2024 00:59:19
Eccentricity: 0.0054312
inclination: 97.6979°
perigee height: 593 km
apogee height: 669 km
right ascension of ascending node: 279.7103°
argument of perigee: 121.4449°
revolutions per day: 14.79350110
mean anomaly at epoch: 239.2089°
orbit number at epoch: 52983

The dashed part of the orbit path shows where the satellite is in the earth's shadow,  

DLR